STARLINK-32753, 62481

Orbit data source: Space-Track

STARLINK-32753, 62481 is a payload satellite owned by SpaceX/Seattle (US) in LEO that was launched on Tue, 31 Dec 2024 UTC via an FALCON 9 launch vehicle from the Air Force Eastern Test Range (AFETR). Payload-class satellites include a variety of spacecraft equipped with specific instruments for various scientific and technological missions. These include communications satellites like Starlink; space stations such as the ISS; scientific satellites like the Hubble; Earth observation satellites from companies like Planet Labs, Umbra, and HawkEye 360; GPS; miniature CubeSats for education and research; and military/defense satellites.

Loading next visibility...
Identifier
62481, 2024-254V
Orbit
LEO
Last TLE update
19 hours ago
Origin
Manufacturer
SpaceX/Seattle
Mission
Operational Commercial Communications
Bus & Motor
STARLINK V2M, Unknown motor
Mass
730 kg wet, ~700 kg dry
Launch date (UTC)
2024-12-31 (6 months ago)
Launch vehicle
FALCON 9
Launch site
Air Force Eastern Test Range (AFETR)
Object type
Payload
Rocket body
Debris
Shape & HBR
Box + 2 Pan, 29 m
Radar Cross Section
33.884 m², Large (>1 m²)

Expand to show TLE details & history

TLE from 19 hours ago
0 STARLINK-32753
1 62481U 24254V   25183.43903791  .00012918  00000-0  47808-3 0  9994
2 62481  42.9971 349.3681 0000830 282.9460  77.1299 15.27583759 29380
Epoch: 2025-07-02T10:32Z
TLE epoch observation values (Epoch: 2025-07-02T10:32:12.875Z)
Latitude
-0.00001°
Longitude
-89.40568°
Altitude
482.686 km
Speed
7.626 km/s
True Right ascension
23h 17m 28s
True Declination
0° 00' 00"
Sunlit
Object was in daylight at epoch
Visualization orbit readout
Latitude
-13.65902°
Longitude
-108.84045°
Altitude
485.164 km
Speed
7.624 km/s
Apparent Right ascension
00h 45m 21s
Apparent Declination
-38° 32' 28"
Sunlit
Object is in full shadow
Visualization observer readout
Local Sidereal Time
17:02:17
Azimuth
110.24° ESE
Elevation
-41.344°
Doppler factor
1
Orbital elements
Apogee altitude
485.553 km
Perigee altitude
484.414 km
Semi-major axis
6,863.121 km
Eccentricity
0.00008
Inclination
42.9971°
RAAN
349.3681°
Arg. of periapsis
282.946°
True anomaly
Unknown
Mean anomaly
77.1299°
Eccentric anomaly
Unknown
Mean motion
3.81734 °/min
Orbital period
94.31 mins
BSTAR
0.00047808
Loading maneuver chart data...
Loading SW <> Apogee altitude chart data...
Loading historical data...
Loading historical data...
Loading historical data...
Loading historical data...
Loading historical data...
Loading historical data...
Loading historical data...

STARLINK-32753 Visibility forecast

Observer location: undefined°, undefined°

Span
Click to sort rows by Start time (UTC) header in descending order
Start Az.
Max El. time (UTC)
Max El. Az.
Max El.
End time (UTC)
End Az.
4 mins2025-07-03 13:23:48.534Z185.254° SSW2025-07-03 13:25:48.534Z150.547° SSE17.536°2025-07-03 13:27:48.534Z111.011° ESE
5 mins2025-07-03 15:02:48.534Z242.31° WSW2025-07-03 15:04:48.534Z128.881° SE44.267°2025-07-03 15:07:48.534Z73.671° E
5 mins2025-07-03 16:41:48.534Z289.508° WNW2025-07-03 16:43:48.534Z359.16° N38.316°2025-07-03 16:46:48.534Z72.005° E
5 mins2025-07-03 18:20:48.534Z292.997° NW2025-07-03 18:22:48.534Z349.492° N43.522°2025-07-03 18:25:48.534Z98.695° ESE
5 mins2025-07-03 19:59:48.534Z260.654° W2025-07-03 20:01:48.534Z208.765° SW27.759°2025-07-03 20:04:48.534Z149.256° SSE
|